Flag for Czech Republic Weather past 2 weeks in Brno, Czech Republic

Now
48 °F

Passing clouds.


Feels Like: 48 °F
Forecast: 54 / 75 °F
Wind: 1 mph from North

Location: Brno / Turany

Current Time: Aug 29, 2014 at 7:29:05 AM

Latest Report: Aug 29, 2014 at 6:00 AM


Visibility: 16 mi

Pressure: 30.13 "Hg

Humidity: 90%

Dew point: 45 °F

Location of BrnoLocation

Historic Weather in Brno — Graph

°F

Brno temperature yesterday

Maximum temperature yesterday: 71 °F (at 5:00 PM)
Minimum temperature yesterday: 46 °F (at 6:00 AM)
Average temperature yesterday: 59 °F

Past Weeks' High & Low Weather Summary

 TemperatureHumidityPressure
High76 °F (Aug 18, 5:00 PM)97% (Aug 19, 4:00 AM)30.14 "Hg (Aug 19, 4:00 AM)
Low44 °F (Aug 25, 6:00 AM)40% (Aug 18, 1:00 PM)29.71 "Hg (Aug 26, 6:00 PM)
Average59 °F77%29.97 "Hg
* Reported Aug 14 6:00 AM — Aug 29 6:00 AM, Brno, Weather by CustomWeather, © 2014

Note: Actual official high and low records may vary slightly from our data, if they occured in-between our weather recording intervals... More about our weather records

Advertising

Brno weather history for previous 24 hours

 ConditionsComfort  
Time TempWeatherWind HumidityBarometerVisibility
6:00 AM
Aug 29
48 °FPassing clouds.1 mph90%30.13 "Hg16 mi
5:00 AM49 °FPassing clouds.2 mph89%30.13 "Hg19 mi
4:00 AM49 °FPassing clouds.2 mph88%30.13 "Hg19 mi
3:00 AM50 °FPassing clouds.1 mph87%30.13 "Hg19 mi
2:00 AM51 °FClear.1 mph87%30.13 "Hg19 mi
1:00 AM49 °FClear.2 mph88%30.14 "Hg19 mi
12:00 AM53 °FClear.2 mph78%30.13 "Hg19 mi
11:00 PM
Aug 28
58 °FPassing clouds.2 mph65%30.11 "Hg19 mi
10:00 PM61 °FPassing clouds.2 mph57%30.10 "Hg22 mi
9:00 PM62 °FPassing clouds.2 mph58%30.09 "Hg25 mi
8:00 PM63 °FPassing clouds.2 mph55%30.08 "Hg28 mi
7:00 PM66 °FPassing clouds.2 mph53%30.07 "Hg28 mi
6:00 PM69 °FPassing clouds.2 mph45%30.07 "Hg25 mi
5:00 PM71 °FPassing clouds.2 mph40%30.07 "Hg25 mi
4:00 PM69 °FPassing clouds.2 mph46%30.08 "Hg25 mi
3:00 PM68 °FPartly sunny.3 mph47%30.09 "Hg25 mi
2:00 PM69 °FPassing clouds.2 mph47%30.09 "Hg25 mi
1:00 PM65 °FScattered clouds.3 mph51%30.11 "Hg25 mi
12:00 PM66 °FScattered clouds.3 mph51%30.12 "Hg25 mi
11:00 AM63 °FPassing clouds.1 mph64%30.13 "Hg25 mi
10:00 AM59 °FPassing clouds.2 mph71%30.14 "Hg25 mi
9:00 AM55 °FSunny.1 mph79%30.13 "Hg16 mi
8:00 AM51 °FPassing clouds.2 mph87%30.14 "Hg9 mi
7:00 AM47 °FPassing clouds.2 mph90%30.13 "Hg9 mi
Weather by CustomWeather, © 2014

See weather overviewHow to use our weather pages